Regional Weather Roundup
Issued by NWS

Home | Current Version | Previous Version | Graphics & Text | Print | Product List | Glossary On
Versions: 1 2 3 4 5 6 7 8 9 10 11 12 13 14 15 16 17 18 19 20 21 22 23 24 25 26 27 28 29 30 31 32 33 34 35 36 37 38 39 40 41 42 43 44 45 46 47 48 49 50
000
ASUS45 KBOI 020410
RWRID

IDAHO REGIONAL WEATHER ROUNDUP
NATIONAL WEATHER SERVICE BOISE ID
1000 PM MDT TUE SEP 01 2015

NOTE: "FAIR" INDICATES FEW OR NO CLOUDS BELOW 12000 FEET
WITH NO SIGNIFICANT WEATHER AND/OR OBSTRUCTIONS TO VISIBILITY

IDZ012-014-020500-
SOUTHWEST IDAHO


CITY           SKY/WX    TMP DP  RH WIND       PRES   REMARKS
BOISE          CLEAR     74  40  29 SE5       29.75S
CALDWELL         N/A     72  43  35 CALM      29.75S
MOUNTAIN HOME  CLEAR     74  37  26 NW8       29.76R
$$

IDZ016-017-020500-
SOUTHCENTRAL IDAHO


CITY           SKY/WX    TMP DP  RH WIND       PRES   REMARKS
BURLEY         CLEAR     65  47  52 S5        29.83S
JEROME         PTCLDY    65  39  38 N5        29.85R
TWIN FALLS     PTCLDY    68  35  29 CALM      29.85R
$$

IDZ019>023-020500-
SOUTHEAST IDAHO


CITY           SKY/WX    TMP DP  RH WIND       PRES   REMARKS
IDAHO FALLS    CLEAR     62  40  44 CALM      29.91S
POCATELLO      CLEAR     76  35  22 SW3       29.88S
REXBURG        CLEAR     71  29  21 S6        29.92R
$$

IDZ006-010-011-018-031-032-020500-
CENTRAL IDAHO MOUNTAINS


CITY           SKY/WX    TMP DP  RH WIND       PRES   REMARKS
MCCALL         CLEAR     59  35  40 CALM      29.88F
HAILEY         CLEAR     61  39  44 W9        29.96R
STANLEY          N/A     55  27  34 CALM      30.02R
SALMON         PTCLDY    72  34  25 SE5       29.79R
CHALLIS        CLEAR     68  28  22 E5        29.89R
$$

IDZ002-004-006-007-026-020500-
NORTHERN IDAHO


CITY           SKY/WX    TMP DP  RH WIND       PRES   REMARKS
LEWISTON       CLOUDY    74  36  25 CALM      29.73S
LOWELL           N/A     62  56  80 CALM      29.74R
COEUR D`ALENE  CLOUDY    66  41  39 SW8       29.75S
MULLAN PASS    CLOUDY    54  29  38 VRB7      29.91F
$$



USA.gov is the U.S. government's official web portal to all federal, state and local government web resources and services.